Location: ?
(35.8798°N, 139.5283°E)
Time: 23:23:41
(UTC+00:00)

Daily predictions for brighter satellites

Satellite Brightness Start Highest point End
(mag) Time Altitude Azimuth Time Altitude Azimuth Time Altitude Azimuth
Milstar 3 4.5 17:57:45 59° S 17:57:45 59° S 18:07:56 10° ESE
Cosmos 1833 Rocket 4.4 18:23:24 28° ENE 18:23:29 28° ENE 18:28:14 10° ESE
Cosmos 2344 3.5 19:04:29 12° SSW 19:11:57 83° ESE 19:19:26 10° NNE
Hubble Space Telescope 2.8 19:13:57 21° SSE 19:13:57 21° SSE 19:16:51 10° ESE
USA 215 3.8 19:11:39 10° ESE 19:17:55 52° NE 19:21:05 29° NNW
Meteor 2-2 Rocket 4.2 19:18:08 29° N 19:21:19 88° E 19:27:02 10° S
Chandra Rocket (1) 3.8 19:23:48 17° SSE 19:23:48 17° SSE 19:24:46 10° SE
Cosmos 1076 Rocket 4.5 19:19:03 10° SSE 19:23:14 48° E 19:27:26 10° NNE
COSMOS 2455 3.0 19:21:04 35° NNW 19:23:44 73° ENE 19:29:44 10° SSE
COSMOS 2406 3.4 19:21:42 31° N 19:24:27 70° ENE 19:30:04 10° SSE
COSMO-SKYMED 1 4.3 19:22:30 10° SE 19:26:19 31° ENE 19:30:09 10° N
Cosmos 2082 Rocket 3.2 19:23:20 14° N 19:27:54 42° ENE 19:33:11 10° SE
Cosmos 1513 Rocket 4.5 19:21:51 10° N 19:28:13 88° E 19:34:37 10° S
BREEZE-M R/B 3.9 19:30:03 30° E 19:30:03 30° E 19:32:01 10° ESE
SL-24 R/B 4.2 19:27:33 10° N 19:32:35 67° WNW 19:37:05 10° SSW
Cosmos 1850 Rocket 3.9 19:32:03 33° SW 19:34:25 67° WNW 19:39:45 10° NNE
Cosmos 2084 Rocket 3.8 19:33:24 28° S 19:35:11 54° ESE 19:38:57 10° NE
Cosmos 2278 Rocket 3.1 19:43:59 29° NNW 19:43:59 29° NNW 19:47:39 10° N
Cosmos 1072 Rocket 4.3 19:36:59 10° N 19:43:08 72° W 19:49:11 10° S
YAOGAN 6 2.4 19:40:41 10° N 19:44:23 86° W 19:48:02 10° SSW
Cosmos 2346 Rocket 4.4 19:38:44 10° SSW 19:44:55 64° W 19:51:09 10° N
Cosmos 1943 Rocket 2.9 19:42:54 10° S 19:48:25 56° ESE 19:53:57 10° NNE
Cosmos 468 Rocket 4.0 19:46:15 34° NW 19:48:29 62° WSW 19:53:41 10° S
Tsikada Rocket 4.2 19:43:08 10° S 19:49:13 70° E 19:55:24 10° NNE
FALCON 9 DEB 4.2 19:48:33 28° S 19:49:27 36° SE 19:52:08 10° ENE
CZ-2C R/B 3.1 19:44:00 10° SSE 19:49:29 63° ENE 19:54:55 10° N
H-2A R/B 2.5 19:49:22 10° N 19:53:03 72° WNW 19:56:44 10° SSW
Cosmos 1842 Rocket 3.5 19:52:39 22° NNW 19:55:28 65° W 19:59:52 10° S
FALCON 9 DEB 2.4 20:03:52 61° WSW 20:04:16 84° NW 20:07:09 10° NE
SL-19 R/B 4.3 20:00:46 10° S 20:06:29 61° WSW 20:12:00 10° NNW
Cosmos 1606 4.0 20:07:53 23° WSW 20:07:53 23° WSW 20:10:00 10° SSW
Cosmos 1833 Rocket 3.2 20:05:10 26° WNW 20:07:25 36° WSW 20:12:31 10° S
ADEOS 3.8 20:04:49 10° NNE 20:10:03 75° ESE 20:15:16 10° S
FALCON 9 DEB 2.6 20:10:06 52° WNW 20:10:24 56° NW 20:13:14 10° NE
Cosmos 540 Rocket 3.4 20:06:02 13° NNW 20:10:34 66° WSW 20:15:40 10° S
FALCON 9 DEB 2.9 20:10:44 18° SW 20:12:43 69° SE 20:15:36 10° NE
SKYMED 2 3.5 20:09:55 10° S 20:14:13 70° WSW 20:18:34 10° NNW
FALCON 9 R/B 4.0 19:56:06 16° W 20:17:44 85° S 20:24:21 10° E
Delta 2 Rocket 4.3 20:15:37 22° WSW 20:17:52 39° SSW 20:22:15 10° SE
NOSS 3-2 (A) 3.4 20:14:06 10° SW 20:19:23 52° NW 20:25:22 10° NNE
X-37B 2.5 20:19:27 14° SW 20:19:33 14° SW 20:21:09 10° S
Tiangong 2.1 20:18:56 25° WSW 20:19:59 32° SSW 20:22:50 10° SSE
NOSS 3-2 (C) 3.2 20:17:08 10° SSW 20:22:29 88° ESE 20:28:34 10° NNE
Cosmos 1782 3.5 20:18:40 10° N 20:22:34 55° E 20:26:26 10° SSE
OAO 3 Rocket 3.3 20:22:22 19° W 20:25:59 82° S 20:30:54 10° E
CENTAUR R/B 2.4 20:21:33 10° SW 20:27:03 61° NW 20:33:40 10° NNE
Cosmos 2221 3.7 20:27:29 18° WNW 20:28:59 21° W 20:32:17 10° SW
Cosmos 2098 Rocket 2.8 20:30:36 10° S 20:33:39 65° E 20:37:18 10° NNE
Cosmos 841 Rocket 3.6 20:28:48 10° NNW 20:33:47 51° WSW 20:38:45 10° S
Cosmos 1933 3.3 20:30:54 10° NNW 20:34:50 58° W 20:38:45 10° S
SJ-7 4.4 20:32:16 10° N 20:36:29 70° WNW 20:40:37 10° SSW
Cosmos 2151 3.6 20:32:48 10° SW 20:36:41 34° WNW 20:40:36 10° NNW
Cosmos 2369 Rocket 2.7 20:32:45 10° S 20:38:15 64° ESE 20:43:47 10° NNE
CZ-3 R/B 4.4 20:33:48 10° SSW 20:38:20 13° S 20:41:22 10° SE
Aureole 1 Rocket 2.4 20:35:29 10° SSW 20:38:46 48° WNW 20:41:42 10° N
Envisat 3.8 20:35:56 10° NNW 20:40:11 28° WNW 20:44:26 10° SW
DMSP B5D2-2 4.3 20:36:34 10° SSE 20:41:48 77° ENE 20:47:01 10° N
Meteor 1-31 Rocket 3.9 20:40:40 10° NNW 20:43:42 22° WNW 20:46:45 10° WSW
Iridium 2 3.6 20:40:44 10° S 20:44:29 69° W 20:48:16 10° N
BREEZE-M DEB (TANK) 4.0 20:28:24 10° SW 20:46:41 89° NNW 20:50:56 10° NE
Cosmos 1570 Rocket 4.0 20:42:04 10° NNW 20:47:18 79° WSW 20:52:32 10° SSE
H-2A R/B 2.6 20:43:46 10° SSE 20:47:50 58° ENE 20:52:00 10° N
SMAP 3.7 20:44:16 10° NNE 20:48:53 61° E 20:53:28 10° S
USA 238 DEB 3.7 20:44:30 10° SW 20:50:45 53° NW 20:57:21 10° NNE
USA 238 3.7 20:44:36 10° SW 20:50:52 54° NW 20:57:28 10° NNE
Cosmos 1766 Rocket 3.6 20:47:56 10° S 20:52:18 88° ESE 20:56:40 10° N
Hubble Space Telescope 2.4 20:50:50 10° WSW 20:54:25 29° S 20:58:00 10° ESE
Cosmos 1867 4.2 20:49:49 10° NNW 20:55:14 58° ENE 21:00:35 10° SE
Meteor 2-3 Rocket 4.4 20:52:02 10° SW 20:56:59 32° WNW 21:02:02 10° NNW
Cosmos 1812 2.7 20:54:13 10° N 20:58:04 89° E 21:01:54 10° S
CZ-4C R/B 3.9 20:56:37 10° SSW 20:59:22 25° W 21:02:04 10° NW
Gbstr 26 Del rocket 4.1 20:56:40 10° NNW 21:00:23 36° NE 21:04:40 10° ESE
Cosmos 1939 Rocket 2.8 20:56:36 10° N 21:00:34 76° WNW 21:04:27 10° SSW
USA 215 3.9 20:54:54 10° SSE 21:00:57 40° SW 21:07:01 10° WNW
H-2A R/B 3.7 20:56:36 10° NNE 21:01:08 37° E 21:05:39 10° SSE
NOAA 12 4.1 20:56:45 10° N 21:01:59 67° WNW 21:07:10 10° SSW
COSMO-SKYMED 1 4.0 20:59:25 10° SW 21:02:29 19° W 21:05:35 10° NW
Meteor 2-6 Rocket 4.5 20:58:01 10° N 21:03:28 71° E 21:08:49 10° SSE
Cosmos 968 Rocket 3.8 20:59:35 10° SW 21:04:29 43° WNW 21:09:25 10° N
BREEZE-M DEB (TANK) 3.8 21:00:39 10° NW 21:15:58 82° SW 21:20:15 10° SE
